Location: Newark
(43.0000°N, 1.6781°W)
Time: 23:02:05
(UTC+00:00)

N. Korean satellite - Pass Details

Date: 11 December 2021
Orbit: 447 x 491 km, 97.3° (Epoch: 21 January)

Event Time Altitude Azimuth Distance (km) Brightness Sun altitude
Rises 06:11:14 0° 357° (N) 2,459 9.9 -13.5°
Enters shadow 06:12:45 - 349° (N) 1,874 9.2 -13.2°
Exits shadow 06:16:55 20° 272° (W) 1,108 7.8 -12.5°
Drops below altitude 10° 06:18:49 10° 240° (WSW) 1,578 8.8 -12.2°
Sets 06:21:09 0° 224° (SW) 2,450 9.9 -11.8°
